Regional Weather Roundup
Issued by NWS Albany, NY

Home | Current Version | Previous Version | Text Only | Print | Product List | Glossary On
Versions: 1 2 3 4 5 6 7 8 9 10 11 12 13 14 15 16 17 18 19 20 21 22 23 24 25 26 27
000
ASUS41 KALY 040210
RWRALY

NEW YORK STATE HOURLY WEATHER ROUNDUP
NATIONAL WEATHER SERVICE ALBANY NY
1000 PM EDT TUE MAY 03 2016

NOTE: "FAIR" INDICATES FEW OR NO CLOUDS BELOW 12,000 FEET WITH NO
SIGNIFICANT WEATHER AND/OR NO OBSTRUCTIONS TO VISIBILITY.

NYZ032-033-038>043-046>054-057>066-NYZ062>081-082-084-040300-
EAST


CITY           SKY/WX    TMP DP  RH WIND       PRES   REMARKS
ALBANY         CLOUDY    51  44  77 S5        29.85S
GLENS FALLS    CLOUDY    52  41  66 CALM      29.85R
POUGHKEEPSIE   CLOUDY    53  50  89 CALM      29.84S FOG
MONTGOMERY     LGT RAIN  51  49  92 NE3       29.84S FOG
WHITE PLAINS   FOG       49  48  97 E6        29.84F VSB 1/4
ISLIP          DRIZZLE   49  46  90 E6        29.86S FOG
NEW YORK CITY  DRIZZLE   53  52  96 NE8       29.85R FOG
CENTRAL PARK   CLOUDY    52  49  89 E3        29.87S
$$

NYZ005>009-017-018-044>046-055-056-040300-
CENTRAL


CITY           SKY/WX    TMP DP  RH WIND       PRES   REMARKS
FULTON         CLOUDY    52  41  66 CALM      29.82R
SYRACUSE       CLOUDY    51  42  71 NW5       29.81R
ROME           CLOUDY    51  44  77 E6        29.83R
ELMIRA         CLOUDY    49  43  80 N3        29.81R
BINGHAMTON     CLOUDY    47  45  93 CALM      29.81S
MONTICELLO     CLOUDY    46  46 100 CALM      29.85R
$$

NYZ026>034-041>043-087-040300-
NORTH


CITY           SKY/WX    TMP DP  RH WIND       PRES   REMARKS
WATERTOWN      CLOUDY    51  42  71 W3        29.81S
FORT DRUM      NOT AVBL
MASSENA        CLEAR     49  36  61 E6        29.84R
SARANAC LAKE   MOCLDY    40  35  83 NE3       29.82R
PLATTSBURGH    NOT AVBL
$$

NYZ001>004-010>016-019>021-085-040300-
WEST


CITY           SKY/WX    TMP DP  RH WIND       PRES   REMARKS
NIAGARA FALLS  CLOUDY    54  39  57 CALM      29.81R
BUFFALO        MOCLDY    47  41  80 SW10      29.82R
DUNKIRK        CLEAR     42  38  85 S5        29.83S
JAMESTOWN      MOCLDY    46  39  76 NW6       29.82R
WELLSVILLE     CLOUDY    48  41  76 CALM      29.81S
ROCHESTER      CLOUDY    51  39  63 CALM      29.82R
PENN YAN       CLOUDY    50  46  86 CALM      29.82R
$$

             KEY
       WCI = WIND CHILL INDEX
       VSB = VISIBILITY
       HX  = HEAT INDEX
$$




USA.gov is the U.S. government's official web portal to all federal, state and local government web resources and services.